Find Starlink 30301

NORAD ID: 57666 Int'l Des: 2023-124 Owner: SPXS Country: US Constellation: starlink operational
LEOCIRCULAR

当前视图

正在加载3D地球...

About Starlink 30301

Starlink 30301 (NORAD 57666) is a starlink constellation satellite (v2 mini) launched Aug 22, 2023 by SPXS of US. It operates in LEO, CIRCULAR orbit with a mass of 730.00 kg.

关于 Starlink 30301

正在加载描述...

即将过境

Passes for default location (London). Set your location on the main map for personalized predictions.

高度历史

Loading altitude history...

两行轨道根数

1 57666U 23124D 26171.21874806 .00009938 00000-0 31296-3 0 9998
2 57666 53.1594 151.4395 0002678 50.6716 309.4523 15.33563302158387
Epoch: Jun 20, 2026 • Age: 13 hours

当前状态

高度 464.5 km
速度 7.64 km/s
星下点 25.77°N, 7.47°W
发射日期 Aug 22, 2023
运行时间 2.8 years
类型 internet

技术详情

分类 Payload
质量 730.00 kg
干质量 700.00 kg
总质量 730.00 kg
长度 0.30 m
直径 4.10 m
跨度 29.00 m
形状 Box + pan
制造商 SPXS
平台类型 Starlink V2M
阶段状态 In Orbit
所有者/国家 SPXS/US

Most Searched